Weather History for KPBI - January, 2015

Change the Weather History Date:

Wednesday, January 28, 2015

  Actual Average Record
Temperature  
Mean Temperature 59 °F 66 °F  
Max Temperature 68 °F 75 °F 87 °F (1952)
Min Temperature 49 °F 57 °F 31 °F (1986)
Degree Days  
Heating Degree Days 6 2  
Month to date heating degree days 24 82  
Since 1 July heating degree days 66 153  
Cooling Degree Days 0 4  
Month to date cooling degree days 164 94  
Year to date cooling degree days 164 94  
Growing Degree Days 9 (Base 50)    
Moisture  
Dew Point 39 °F    
Average Humidity 58    
Maximum Humidity 93    
Minimum Humidity 22    
Precipitation  
Precipitation 0.00 in 0.10 in 2.16 in (1924)
Month to date precipitation 1.05 2.86  
Year to date precipitation 1.05 2.86  
Snow  
Snow 0.00 in - - ()
Month to date snowfall 0.0  
Since 1 July snowfall 0.0  
Snow Depth 0.00 in    
Sea Level Pressure  
Sea Level Pressure 30.13 in    
Wind  
Wind Speed 12 mph (NNW)    
Max Wind Speed 20 mph    
Max Gust Speed 25 mph    
Visibility 10 miles    
Events      
T = Trace of Precipitation, MM = Missing Value Source: NWS Daily Summary

Daily Weather History Graph

Daily Weather History Graph

Search for Another Location

Airport or City:

Trip Planner

Search our weather history database for the weather conditions in past years. The results will help you decide how hot, cold, wet, or windy it might be!

Date:

Astronomy

Jan. 28, 2015 Rise Set
Actual Time 7:07 AM EST 5:59 PM EST
Civil Twilight 6:42 AM EST 6:23 PM EST
Nautical Twilight 6:15 AM EST 6:51 PM EST
Astronomical Twilight 5:47 AM EST 7:19 PM EST
Moon 1:01 PM EST 1:40 AM EST
Length of Visible Light 11h 41m
Length of Day
10h 52m
Waxing Gibbous, 66% of the Moon is Illuminated
Jan 28
Waxing Gibbous
Feb 3
Full
Feb 11
Last Quarter
Feb 18
New
Feb 25
First Quarter

Hourly Weather History & Observations

Time (EST) Temp. Dew Point Humidity Pressure Visibility Wind Dir Wind Speed Gust Speed Precip Events Conditions
12:53 AM 55.0 °F 50.0 °F 83% 30.03 in 10.0 mi West 6.9 mph - N/A   Partly Cloudy
1:53 AM 54.0 °F 51.1 °F 90% 30.04 in 10.0 mi WNW 8.1 mph - N/A   Clear
2:53 AM 54.0 °F 48.0 °F 80% 30.04 in 10.0 mi NW 9.2 mph - N/A   Clear
3:53 AM 53.1 °F 46.0 °F 77% 30.04 in 10.0 mi NW 11.5 mph - N/A   Clear
4:53 AM 52.0 °F 45.0 °F 77% 30.06 in 10.0 mi NW 10.4 mph - N/A   Clear
5:53 AM 51.1 °F 42.1 °F 71% 30.08 in 10.0 mi NW 10.4 mph - N/A   Clear
6:53 AM 50.0 °F 39.9 °F 68% 30.11 in 10.0 mi NW 10.4 mph - N/A   Partly Cloudy
7:53 AM 51.1 °F 41.0 °F 68% 30.13 in 10.0 mi NW 10.4 mph - N/A   Partly Cloudy
8:53 AM 55.9 °F 39.0 °F 53% 30.15 in 10.0 mi NW 12.7 mph - N/A   Partly Cloudy
9:53 AM 60.1 °F 37.0 °F 42% 30.17 in 10.0 mi NNW 15.0 mph - N/A   Partly Cloudy
10:53 AM 63.0 °F 35.1 °F 35% 30.17 in 10.0 mi NNW 17.3 mph 21.9 mph N/A   Partly Cloudy
11:53 AM 66.2 °F 33.8 °F 30% 30.16 in 10.0 mi NW 15.0 mph 21.9 mph N/A   Partly Cloudy
12:53 PM 66.2 °F 28.4 °F 24% 30.14 in 10.0 mi NNW 12.7 mph - N/A   Partly Cloudy
1:53 PM 66.2 °F 28.4 °F 24% 30.12 in 10.0 mi North 12.7 mph - N/A   Scattered Clouds
2:53 PM 66.2 °F 26.6 °F 23% 30.12 in 10.0 mi North 11.5 mph - N/A   Partly Cloudy
3:53 PM 66.2 °F 30.2 °F 26% 30.12 in 10.0 mi NNE 13.8 mph - N/A   Scattered Clouds
4:21 PM 64.4 °F 32.0 °F 30% 30.13 in 10.0 mi North 15.0 mph - N/A   Scattered Clouds
4:53 PM 64.4 °F 32.0 °F 30% 30.14 in 10.0 mi North 17.3 mph - N/A   Partly Cloudy
5:53 PM 60.8 °F 33.8 °F 36% 30.16 in 10.0 mi North 15.0 mph - N/A   Scattered Clouds
6:53 PM 57.2 °F 37.4 °F 48% 30.18 in 10.0 mi NNW 10.4 mph - N/A   Partly Cloudy
7:53 PM 55.0 °F 44.1 °F 67% 30.19 in 10.0 mi NW 10.4 mph - N/A   Partly Cloudy
8:53 PM 55.0 °F 46.0 °F 72% 30.19 in 10.0 mi NW 11.5 mph - N/A   Partly Cloudy
9:53 PM 54.0 °F 46.0 °F 75% 30.19 in 10.0 mi NW 10.4 mph - N/A   Partly Cloudy
10:53 PM 53.1 °F 46.9 °F 80% 30.18 in 10.0 mi NW 11.5 mph - N/A   Scattered Clouds
11:53 PM 53.1 °F 46.9 °F 80% 30.19 in 10.0 mi NNW 9.2 mph - N/A   Partly Cloudy